Volver al catálogo

STARLINK-34619

ActivoComunicacionesVLEO
NORAD 64737·PAYLOAD·🇺🇸 United States

Lanzado Jul 2, 2025 desde Cape Canaveral Space Force Station

Loading…

Próximos Pases (próximas 24 horas)

TLE

ActualizadoSource: CelesTrak SupGP

Época: Sep 14, 2026, 21:21 UTC

1 64737C 25144P   26257.89006944  .00027182  00000+0  80335-3 0  2573
2 64737  53.1598  21.6496 0001274  77.9507  57.8739 15.34367058    19

Sigue STARLINK-34619 en tiempo real con AllMySat

Download on the App Store